NOAA 16 DEB, 41250

Orbit data source: Space-Track

NOAA 16 DEB, 41250 is space debris in SSO originally from a launch on Thu, 21 Sep 2000 UTC launched from the Air Force Western Test Range (AFWTR). Debris objects in space refer to the collection of defunct objects orbiting the Earth. Examples of debris include non-operational satellites, rocket bodies, and fragments generated from explosions, collisions, or faulty payload assembly.

Loading next visibility...
Identifier
41250, 2000-055FA
Orbit
SSO
Country
Flag of USUS
Related business
Manufacturer
Unknown
Mission
Spacecraft
Bus & Motor
Unknown
Mass
Unknown
Launch date (UTC)
2000-09-21 (25 years ago)
Launch vehicle
Unknown
Launch site
Air Force Western Test Range (AFWTR)
Object type
Payload
Rocket body
Debris
Shape & HBR
Unknown shape, 0.1 m
Radar Cross Section
Small (<0.1 m²)

Expand to show TLE details & history
Last TLE update: 18 hours ago

TLE from 18 hours ago
0 NOAA 16 DEB
1 41250U 00055FA  25351.27349270  .00184028  00000-0  13109-1 0  9990
2 41250  98.9825 191.4801 0017900 320.1221  39.8684 15.03536831518745
Epoch: 2025-12-17T06:33Z
TLE epoch observation values (Epoch: 2025-12-17T06:33:49.769Z)
Latitude
-0.00003°
Longitude
6.87702°
Altitude
549.5 km
Speed
7.592 km/s
True Right ascension
12h 45m 55s
True Declination
0° 00' 00"
Sunlit
Object was in daylight at epoch
Visualization orbit readout
Latitude
Unknown
Longitude
Unknown
Altitude
Unknown
Speed
Unknown
Apparent Right ascension
Unknown
Apparent Declination
Unknown
Sunlit
N/A
Visualization observer readout
Local Sidereal Time
23:42:48
Azimuth
Unknown
Elevation
Unknown
Doppler factor
Unknown
Orbital elements
Apogee altitude
565.469 km
Perigee altitude
540.656 km
Semi-major axis
6,931.199 km
Eccentricity
0.00179
Inclination
98.9825°
RAAN
191.4801°
Arg. of periapsis
320.1221°
True anomaly
40.00011°
Mean anomaly
39.8684°
Eccentric anomaly
39.93423°
Mean motion
3.76124 °/min
Orbital period
95.71 mins
BSTAR
0.013109
Loading maneuver chart data...
Computing Atmospheric mass density...
Loading historical data...
Loading historical data...
Loading historical data...
Loading historical data...
Loading historical data...
Loading historical data...
Loading historical data...

Documentation

Showing up to 5 results
|